Погода в Кутна Горе

Чехия     49°57′03″N   15°16′25″E
темп.,
°C
ветер,
м/с
пор.,
м/с
влажн.,
%
обл.,
%
осадки,
мм/ч
давл.,
гПа
погр.,
м
17 мая, вт
вт1723:00+15в3498100 10.8 1018138
02:00+15ююв1196100 11.1 101721
05:00+15юз1196100 0.8 101726
08:00+15з3798100 3.6 1017377
11:00+15зсз599375 1.8 1018614
14:00+18с677251 2.2 10191143
17:00+16ссв458377 2.1 1020433
20:00+13в269187 2.5 1021228
18 мая, ср
ср1823:00+11в26945 0.0 1024120
02:00+9в229413 0.0 102523
05:00+7в229188 0.0 102619
08:00+12вюв238257 0.0 1028285
11:00+16вюв235670 0.0 10281025
14:00+19в334650 0.0 10271249
17:00+20в34475 0.0 10261226
20:00+14вюв23705 0.0 102637
19 мая, чт
чт1923:00+10ю366415 0.0 102777
02:00+7юв22615 0.0 102717
05:00+6вюв22765 0.0 102716
08:00+13юв376826 0.0 1026408
11:00+18юв564878 0.0 1025793
14:00+21ююв564360 0.0 10231014
17:00+22ююв455072 0.0 1022808
20:00+16ююв4872100 0.0 1021143
20 мая, пт
пт2023:00+14ю3767100 0.0 1021110
02:00+13ю2277100 0.4 102225
05:00+14ю119091 0.9 102221
08:00+18зюз248255 0.9 1022274
11:00+24зсз3463100 0.0 1021888
14:00+27зсз464995 0.0 10191633
17:00+28з254732 0.0 10161622
20:00+19ю2285100 0.9 101433
21 мая, сб
сб2123:00+17зюз51092100 15.3 1015323
02:00+16зюз51193100 17.3 1016300
05:00+16зсз269618 0.1 1016187
08:00+16зсз4109385 0.5 1017658
11:00+17сз9127361 0.4 10191280
14:00+19сз91350100 0.4 10192320
17:00+19сз6125646 0.0 10192272
20:00+15сз38724 0.1 1020217